| time (UTC) | temp C | wind direction | speed KPH | gust KPH | rain 1hr cm | rain 24hr cm | rain mn cm | humidity % | barometer mb |
| 20260503211828 | 16 | 306 | 9.7 | 9.7 | 0.00 | 0.00 | 0.00 | 34 | 1017.0 |
| 20260503204828 | 15 | 324 | 3.2 | 3.2 | 0.00 | 0.00 | 0.00 | 35 | 1017.0 |
| 20260503201825 | 15 | 309 | 3.2 | 3.2 | 0.00 | 0.00 | 0.00 | 37 | 1017.4 |
| 20260503194824 | 15 | 287 | 3.2 | 3.2 | 0.00 | 0.00 | 0.00 | 39 | 1017.7 |
| 20260503191823 | 14 | 39 | 11.3 | 12.9 | 0.00 | 0.00 | 0.00 | 39 | 1018.0 |
| 20260503184819 | 14 | 335 | 8.0 | 9.7 | 0.00 | 0.00 | 0.00 | 40 | 1017.7 |
| 20260503181814 | 14 | 341 | 4.8 | 4.8 | 0.00 | 0.00 | 0.00 | 38 | 1018.4 |
| 20260503174811 | 13 | 340 | 6.4 | 8.0 | 0.00 | 0.00 | 0.00 | 40 | 1018.4 |
| 20260503171809 | 13 | 327 | 6.4 | 6.4 | 0.00 | 0.00 | 0.00 | 38 | 1018.7 |
| 20260503071717 | 3 | 348 | 4.8 | 4.8 | 0.00 | 0.00 | 0.00 | 74 | 1017.7 |
| 20260503054707 | 4 | 348 | 3.2 | 3.2 | 0.00 | 0.00 | 0.00 | 71 | 1017.7 |
| 20260503051706 | 5 | 337 | 4.8 | 4.8 | 0.00 | 0.00 | 0.00 | 72 | 1017.7 |
| 20260503044706 | 5 | 288 | 3.2 | 3.2 | 0.00 | 0.00 | 0.00 | 73 | 1017.7 |
| 20260503041704 | 5 | 357 | 3.2 | 3.2 | 0.00 | 0.00 | 0.00 | 73 | 1018.0 |
| 20260503034700 | 5 | 35 | 3.2 | 3.2 | 0.00 | 0.00 | 0.00 | 72 | 1017.7 |
| 20260503031656 | 5 | 4 | 3.2 | 3.2 | 0.00 | 0.00 | 0.00 | 70 | 1018.0 |
| 20260503024655 | 6 | 8 | 3.2 | 3.2 | 0.00 | 0.00 | 0.00 | 69 | 1018.0 |
| 20260503021651 | 6 | 282 | 4.8 | 4.8 | 0.00 | 0.00 | 0.00 | 66 | 1018.0 |
| 20260503014648 | 6 | 338 | 3.2 | 3.2 | 0.00 | 0.00 | 0.00 | 67 | 1018.0 |
| 20260503011648 | 7 | 30 | 4.8 | 4.8 | 0.00 | 0.00 | 0.00 | 67 | 1017.7 |
| 20260503004647 | 7 | 12 | 4.8 | 4.8 | 0.00 | 0.00 | 0.00 | 66 | 1017.4 |
| 20260503001645 | 8 | 18 | 4.8 | 4.8 | 0.00 | 0.00 | 0.00 | 63 | 1017.0 |
| 20260502234645 | 8 | 30 | 4.8 | 4.8 | 0.00 | 0.00 | 0.00 | 60 | 1016.7 |
| 20260502231643 | 9 | 4 | 6.4 | 6.4 | 0.00 | 0.00 | 0.00 | 56 | 1016.7 |
| 20260502224638 | 10 | 354 | 6.4 | 6.4 | 0.00 | 0.00 | 0.00 | 53 | 1016.3 |
| 20260502221637 | 10 | 6 | 4.8 | 4.8 | 0.00 | 0.00 | 0.00 | 53 | 1016.0 |